Location: Waco, TX
(31.5480°N, 97.1670°W)
Time: 15:32:14
(UTC-05:00)

ISS - Pass Details

Date: 15 October 2018
Orbit: 403 x 408 km, 51.6° (Epoch: 17 October)

Event Time Altitude Azimuth Distance (km) Brightness Sun altitude
Rises 12:28:25 0° 273° (W) 2,319 -0.1 48.3°
Reaches altitude 10° 12:31:56 10° 314° (NW) 1,464 -1.2 48.5°
Maximum altitude 12:32:48 11° 329° (NNW) 1,419 -1.3 48.5°
Drops below altitude 10° 12:33:40 10° 344° (NNW) 1,466 -1.3 48.6°
Sets 12:37:13 0° 25° (NNE) 2,331 -0.3 48.8°
